Location: Dead Woman Crossing
(43.5369°N, 106.3228°W)
Time: 06:28:46
(UTC+00:00)

COSMOS 2251 DEB - Pass Details

Date: 07 December 2022
Orbit: 765 x 800 km, 74.0° (Epoch: 27 January)

Event Time Altitude Azimuth Distance (km) Brightness Sun altitude
Rises 01:30:06 0° 331° (NNW) 3,251 ? -21.2°
Reaches altitude 10° 01:32:39 10° 323° (NW) 2,316 ? -21.7°
Maximum altitude 01:37:23 36° 259° (WSW) 1,211 ? -22.5°
Drops below altitude 10° 01:42:05 10° 194° (SSW) 2,294 ? -23.4°
Sets 01:44:36 0° 185° (S) 3,216 ? -23.8°
